Weather History for Shreveport, LA

Change the Weather History Date:

Wednesday, April 3, 2013

  Actual Average Record
Temperature  
Mean Temperature 46 °F 62 °F  
Max Temperature 48 °F 74 °F 88 °F (1974)
Min Temperature 43 °F 50 °F 31 °F (1987)
Degree Days  
Heating Degree Days 19 5  
Month to date heating degree days 21 15  
Since 1 July heating degree days 1941 2148  
Cooling Degree Days 0 2  
Month to date cooling degree days 0 6  
Year to date cooling degree days 25 47  
Moisture  
Dew Point 42 °F    
Average Humidity 85    
Maximum Humidity 93    
Minimum Humidity 76    
Precipitation  
Precipitation 0.32 in 0.14 in 3.53 in (1911)
Month to date precipitation 0.38 0.42  
Year to date precipitation 11.40 13.51  
Snow  
Snow 0.00 in - - ()
Month to date snowfall 0.0  
Since 1 July snowfall 0.1  
Snow Depth 0.00 in    
Sea Level Pressure  
Sea Level Pressure 30.07 in    
Wind  
Wind Speed 12 mph (NE)    
Max Wind Speed 21 mph    
Max Gust Speed 24 mph    
Visibility 8 miles    
Events Rain    
T = Trace of Precipitation, MM = Missing Value Source: NWS Daily Summary

Daily Weather History Graph

Daily Weather History Graph

Search for Another Location

Airport:

Trip Planner

Search our weather history database for the weather conditions in past years. The results will help you decide how hot, cold, wet, or windy it might be!

Date:

Astronomy

Apr. 03, 2013 Rise Set
Actual Time 7:00 AM CDT 7:36 PM CDT
Civil Twilight 6:35 AM CDT 8:01 PM CDT
Nautical Twilight 6:06 AM CDT 8:30 PM CDT
Astronomical Twilight 5:37 AM CDT 9:00 PM CDT
Moon 2:20 AM CDT (4/3) 1:10 PM CDT (4/3)
Length of Visible Light 13h 25m
Length of Day
12h 36m
Last Quarter, 44% of the Moon is Illuminated
Apr 3
Last Quarter
Apr 10
New
Apr 18
First Quarter
Apr 25
Full
May 2
Last Quarter

Hourly Weather History & Observations

Time (CDT) Temp. Windchill Dew Point Humidity Pressure Visibility Wind Dir Wind Speed Gust Speed Precip Events Conditions
12:56 AM 46.9 °F - 41.0 °F 80% 30.06 in 10.0 mi NNE 12.7 mph - 0.00 in   Overcast
1:56 AM 46.9 °F - 39.9 °F 77% 30.00 in 10.0 mi East 12.7 mph - 0.00 in   Overcast
2:56 AM 48.0 °F - 41.0 °F 77% 29.99 in 10.0 mi ESE 9.2 mph 18.4 mph N/A   Overcast
3:56 AM 46.9 °F - 43.0 °F 86% 30.02 in 6.0 mi East 8.1 mph - 0.06 in Rain Rain
4:56 AM 46.9 °F - 44.1 °F 90% 30.00 in 10.0 mi NE 16.1 mph 23.0 mph 0.05 in Rain Light Rain
5:25 AM 46.4 °F 39.8 °F 44.6 °F 93% 30.00 in 8.0 mi NE 16.1 mph - 0.00 in Rain Light Rain
5:56 AM 46.9 °F - 44.1 °F 90% 30.00 in 10.0 mi NNE 11.5 mph - 0.01 in   Overcast
6:56 AM 46.9 °F - 43.0 °F 86% 30.01 in 10.0 mi NE 13.8 mph - N/A   Overcast
7:56 AM 46.9 °F - 42.1 °F 83% 30.04 in 10.0 mi NE 13.8 mph 21.9 mph N/A   Overcast
8:56 AM 46.0 °F 39.9 °F 42.1 °F 86% 30.06 in 10.0 mi NNE 13.8 mph - N/A   Overcast
9:32 AM 44.6 °F 40.7 °F 42.8 °F 93% 30.09 in 1.8 mi North 6.9 mph - 0.02 in Rain Heavy Rain
9:41 AM 44.6 °F 38.8 °F 42.8 °F 93% 30.10 in 2.5 mi NNE 11.5 mph - 0.04 in Rain Light Rain
9:46 AM 44.6 °F 39.2 °F 42.8 °F 93% 30.10 in 3.0 mi NNE 10.4 mph - 0.06 in Rain Light Rain
9:53 AM 44.6 °F 39.2 °F 42.8 °F 93% 30.10 in 3.0 mi NNE 10.4 mph - 0.07 in Rain Light Rain
9:56 AM 45.0 °F 39.7 °F 43.0 °F 93% 30.10 in 3.0 mi NNE 10.4 mph - 0.08 in Rain Light Rain
10:09 AM 44.6 °F 38.4 °F 42.8 °F 93% 30.10 in 3.0 mi NNE 12.7 mph - 0.04 in Rain Light Rain
10:46 AM 44.6 °F 37.4 °F 42.8 °F 93% 30.10 in 5.0 mi NNE 16.1 mph 20.7 mph 0.11 in Rain Light Rain
10:56 AM 45.0 °F 38.9 °F 43.0 °F 93% 30.09 in 6.0 mi NE 12.7 mph - 0.11 in Rain Light Rain
11:56 AM 46.0 °F 40.6 °F 43.0 °F 89% 30.08 in 10.0 mi NE 11.5 mph 19.6 mph 0.01 in   Overcast
12:13 PM 46.4 °F 41.9 °F 42.8 °F 87% 30.10 in 10.0 mi East 9.2 mph 24.2 mph N/A   Overcast
12:56 PM 46.9 °F - 43.0 °F 86% 30.09 in 10.0 mi ENE 16.1 mph - N/A   Overcast
1:56 PM 46.9 °F - 43.0 °F 86% 30.08 in 10.0 mi NNE 10.4 mph - N/A   Overcast
2:56 PM 46.9 °F - 43.0 °F 86% 30.07 in 10.0 mi NE 13.8 mph 19.6 mph N/A   Overcast
3:56 PM 46.9 °F - 42.1 °F 83% 30.07 in 10.0 mi NNE 10.4 mph - N/A   Overcast
4:56 PM 46.0 °F 40.2 °F 42.1 °F 86% 30.06 in 10.0 mi NE 12.7 mph 21.9 mph N/A   Overcast
5:56 PM 45.0 °F 37.6 °F 41.0 °F 86% 30.05 in 10.0 mi NNE 17.3 mph 23.0 mph N/A   Overcast
6:56 PM 45.0 °F 38.2 °F 41.0 °F 86% 30.05 in 10.0 mi NNE 15.0 mph - N/A   Overcast
7:56 PM 43.0 °F 35.4 °F 39.9 °F 89% 30.06 in 7.0 mi NE 16.1 mph - N/A   Overcast
8:56 PM 44.1 °F 38.6 °F 39.9 °F 85% 30.09 in 8.0 mi NE 10.4 mph - N/A   Overcast
9:56 PM 43.0 °F 36.8 °F 39.9 °F 89% 30.13 in 4.0 mi NE 11.5 mph - 0.00 in   Light Drizzle
10:56 PM 43.0 °F 38.8 °F 41.0 °F 93% 30.13 in 4.0 mi NE 6.9 mph - 0.00 in Rain Light Rain
11:56 PM 43.0 °F 37.2 °F 41.0 °F 93% 30.12 in 7.0 mi NNE 10.4 mph - 0.00 in   Overcast